x

East Bahamas - 335 Nm East Of San Salvador Is, Bahamas (41046) Wave Buoy

9:50pm - Fri 1st Aug 2014 All times are UTC.

  • Sig Wave height 4.3ft
  • Swell Direction
  • Peak Period 7s
  • Average Period 5s
  • Wind
    16mph, 18mph gusts
  • Sea Temp 84°f
  • Air Temp 83°f
  • Sea Pressure 1015.9mb

More Historic Weather Station data

Upgrade to MSW Pro to gain access to the past 30 days of data for over 8000 Wavebouys and Weather Stations around the globe.

Join Pro

Comparision Forecast

View Surf forecast
   
Fri 08/01 9:50pm 4.5ft 7s 5s 16 18 mph 1015.9mb 84f 83f
8:50pm 4ft 7s 5s 16 20 mph 1015.9mb 84f 83f
7:50pm 4.5ft 7s 5s 16 18 mph 1015.9mb 84f 82f
6:50pm 4.5ft 7s 5s 18
mph
1016mb 84f 82f
5:50pm 4.5ft 7s 5s 16 20 mph 1016.8mb 84f 82f
4:50pm 4.5ft 7s 5s 18 20 mph 1017.2mb 84f 82f
3:50pm 4.5ft 7s 5s 18 20 mph 1017.3mb 84f 82f
2:50pm 4.5ft 7s 5s 13 16 mph 1017.6mb 84f 82f
1:50pm 5ft 6s 5s 13 16 mph 1017.7mb 84f 80f
12:50pm 4.5ft 7s 5s 16 18 mph 1017.5mb 84f 82f
11:50am 4.5ft 7s 5s 13 16 mph 1017mb 83f 82f
10:50am 4.5ft 8s 5s 16 18 mph 1016.3mb 83f 82f
9:50am 4.5ft 7s 5s 16 18 mph 1015.7mb 83f 81f
8:50am 5ft 7s 5s 13 16 mph 1016.1mb 83f 81f
7:50am 5ft 7s 5s 13 16 mph 1016.4mb 83f 80f
6:50am 4.5ft 7s 5s 7 9 mph 1016.7mb 83f 78f
5:50am 4.5ft 7s 5s 16 20 mph 1016.8mb 84f 82f
4:50am 4.5ft 7s 5s 11 16 mph 1017.6mb 84f 81f
3:50am 4.5ft 7s 5s 16 18 mph 1017.8mb 84f 81f
2:50am 5ft 7s 5s 16 18 mph 1018.7mb 84f 81f
1:50am 5ft 7s 5s 16 20 mph 1018.6mb 84f 80f
12:50am 5.5ft 6s 5s 16 18 mph 1017.9mb 84f 81f
Thu 07/31 11:50pm 5ft 6s 5s 20 25 mph 1017.6mb 84f 80f
10:50pm 4.5ft 7s 5s 27 31 mph 1016.2mb 84f 80f
9:50pm 4.5ft 6s 5s 13 18 mph 1016.3mb 84f 82f
8:50pm 5ft 7s 5s 13 16 mph 1016.6mb 84f 82f
7:50pm 4.5ft 7s 5s 13 18 mph 1016.8mb 84f 82f
6:50pm 4.5ft 7s 5s 16 18 mph 1017mb 84f 81f
5:50pm 4.5ft 7s 5s 18 20 mph 1017.3mb 83f 81f
4:50pm 5ft 7s 5s 13 18 mph 1017.7mb 83f 82f
3:50pm 5ft 6s 5s 18 20 mph 1017.7mb 83f 81f
2:50pm 5ft 6s 5s 11 18 mph 1018.5mb 83f 76f
1:50pm 4.5ft 7s 5s 16 20 mph 1017.8mb 84f 83f
12:50pm 4.5ft 6s 5s 11 13 mph 1017.3mb 84f 81f
11:50am 4.5ft 6s 5s 27 34 mph 1017.3mb 84f 79f
10:50am 4.5ft 7s 5s 16 18 mph 1016.7mb 84f 82f
9:50am 4.5ft 6s 5s 16 20 mph 1016.6mb 84f 82f
8:50am 4.5ft 6s 5s 16 20 mph 1016.7mb 84f 82f
7:50am 4.5ft 7s 5s 16 18 mph 1016.6mb 84f 82f
6:50am 4.5ft 6s 5s 18 20 mph 1016.9mb 84f 82f
5:50am 4ft 6s 5s 16 18 mph 1017mb 84f 81f
4:50am 4.5ft 6s 5s 18 20 mph 1017.7mb 84f 79f
3:50am 4.5ft 6s 5s 20 22 mph 1017.9mb 84f 81f
2:50am 4.5ft 6s 5s 18 20 mph 1018.4mb 84f 81f
1:50am 4.5ft 6s 5s 22 27 mph 1018.5mb 84f 80f
12:50am 4ft 7s 5s 16 20 mph 1018.2mb 84f 82f
Wed 07/30 11:50pm 4.5ft 7s 5s 16 20 mph 1017.8mb 84f 83f
10:50pm 4ft 7s 5s 16 18 mph 1017.4mb 84f 82f
9:50pm 4.5ft 6s 5s 16 18 mph 1017.2mb 84f 82f
8:50pm 5ft 6s 5s 13 16 mph 1017.1mb 84f 83f
7:50pm 4.5ft 6s 5s 13 18 mph 1017.2mb 84f 82f
6:50pm 4.5ft 6s 5s 16 18 mph 1017.4mb 84f 82f
5:50pm 4.5ft 6s 5s 16 18 mph 1017.8mb 84f 82f
4:50pm 4ft 5s 5s 16 18 mph 1018mb 84f 82f
3:50pm 4ft 5s 5s 16 20 mph 1018.2mb 84f 82f
2:50pm 4ft 5s 5s 18 20 mph 1018.5mb 84f 82f
1:50pm 3.5ft 6s 5s 20 25 mph 1018.5mb 84f 81f
12:50pm 3.5ft 6s 5s 11 16 mph 1018.5mb 84f 81f
11:50am 3.5ft 8s 5s 13 18 mph 1018mb 84f 83f
10:50am 3.5ft 6s 5s 13 18 mph 1017.9mb 84f 82f
9:50am 3.5ft 8s 5s 9 11 mph 1017.7mb 84f 80f
8:50am 3.5ft 8s 5s 13 18 mph 1017.4mb 84f 82f
7:50am 3.5ft 8s 5s 13 18 mph 1017.4mb 84f 82f
6:50am 3.5ft 8s 5s 13 16 mph 1017.7mb 84f 82f
5:50am 3.5ft 7s 5s 13 16 mph 1018mb 84f 82f
4:50am 3.5ft 8s 5s 13 16 mph 1018.1mb 84f 82f
3:50am 3.5ft 8s 5s 13 18 mph 1018.7mb 84f 82f
2:50am 3.5ft 8s 5s 16 20 mph 1018.9mb 84f 82f
1:50am 3.5ft 8s 5s 16 18 mph 1018.9mb 84f 82f
12:50am 3ft 8s 5s 13 16 mph 1018.6mb 84f 82f
Tue 07/29 11:50pm 3.5ft 8s 5s 11 16 mph 1018.3mb 84f 82f
10:50pm 3.5ft 8s 5s 9 11 mph 1017.9mb 84f 82f
9:50pm 3.5ft 8s 5s 7 20 mph 1017.8mb 84f 78f
8:50pm 3.5ft 8s 5s 9 11 mph 1017.5mb 85f 82f
7:50pm 3.5ft 5s 5s 11 13 mph 1017.5mb 84f 82f
6:50pm 3.5ft 5s 5s 13 20 mph 1018mb 85f 78f
5:50pm 3.5ft 8s 5s 9 11 mph 1018.1mb 84f 81f
4:50pm 3.5ft 8s 5s 11 13 mph 1018.6mb 84f 82f
3:50pm 3.5ft 8s 5s 11 13 mph 1018.6mb 84f 81f
2:50pm 3.5ft 9s 5s 11 16 mph 1018.7mb 84f 82f
1:50pm 3.5ft 8s 5s 11 13 mph 1018.7mb 84f 82f
12:50pm 3.5ft 8s 5s 11 13 mph 1018.4mb 84f 82f
11:50am 3.5ft 8s 5s 13 16 mph 1018.3mb 84f 81f
10:50am 3.5ft 8s 5s 13 16 mph 1017.8mb 84f 82f
9:50am 3.5ft 9s 6s 11 16 mph 1017.2mb 84f 82f
8:50am 3ft 9s 6s 7 9 mph 1017mb 84f 80f
7:50am 3.5ft 8s 6s 9 11 mph 1017.3mb 84f 80f
6:50am 3.5ft 9s 6s 11 16 mph 1017.4mb 84f 79f
5:50am 3ft 8s 6s 9 11 mph 1017.6mb 84f 81f
4:50am 3ft 9s 7s 9 11 mph 1018.3mb 84f 81f
3:50am 3ft 8s 7s 7 9 mph 1019.1mb 84f 80f
2:50am 3ft 8s 7s 7 9 mph 1019.6mb 84f 80f
1:50am 3ft 8s 6s 7 9 mph 1019.8mb 84f 80f
12:50am 3ft 9s 7s 7 9 mph 1019.7mb 84f 80f
Mon 07/28 11:50pm 3ft 9s 7s 4 7 mph 1019.5mb 84f 79f
10:50pm 3ft 8s 6s 2 4 mph 1019.2mb 84f 79f